Location: Amberg
(48.0613°N, 10.6820°E)
Time: 02:37:38
(UTC+00:00)

BREEZE-M DEB (TANK) - Pass Details

Date: 18 November 2025
Orbit: 304 x 15920 km, 49.4° (Epoch: 03 December)

Event Time Altitude Azimuth Distance (km) Brightness Sun altitude
Rises 17:30:15 0° 258° (WSW) 2,126 7.0 -18.9°
Reaches altitude 10° 17:31:35 10° 259° (WSW) 1,456 5.7 -19.1°
Maximum altitude 17:34:18 86° 348° (NNW) 622 2.5 -19.5°
Enters shadow 17:36:08 38° 75° (ENE) 1,230 3.5 -19.8°
